• In Hungary
  • List of Countries
  • For 7 days
  • Water Temperature
  • Satellite Maps
  • Weather Map
  • News
  • Weather Widgets
  • user-avatar
    Login

    Hourly Weather Nijlen

    Today, 24 February, Saturday

    Time Temperature Precipitation Wind Pressure Humidity
    00:00 -5°C° 0 mm 5 mps 765 mmHg 47%
    01:00 -5°C° 0 mm 5 mps 765 mmHg 44%
    02:00 -5°C° 0 mm 5 mps 765 mmHg 41%
    03:00 -5°C° 0 mm 5 mps 765 mmHg 38%
    04:00 -5°C° 0 mm 5 mps 765 mmHg 36%
    05:00 -5°C° 0 mm 6 mps 765 mmHg 34%
    06:00 -6°C° 0 mm 6 mps 766 mmHg 29%
    07:00 -6°C° 0 mm 7 mps 766 mmHg 27%
    08:00 -3°C° 0 mm 7 mps 766 mmHg 25%
    09:00 -2°C° 0 mm 8 mps 766 mmHg 23%
    10:00 -1°C° 0 mm 8 mps 766 mmHg 25%
    11:00 0°C° 0 mm 8 mps 766 mmHg 26%
    12:00 +2°C° 0 mm 7 mps 766 mmHg 26%
    13:00 +1°C° 0 mm 8 mps 766 mmHg 30%
    14:00 +1°C° 0 mm 8 mps 766 mmHg 33%
    15:00 +1°C° 0 mm 8 mps 766 mmHg 37%
    16:00 0°C° 0 mm 8 mps 766 mmHg 42%
    17:00 -1°C° 0 mm 7 mps 767 mmHg 47%
    18:00 -2°C° 0 mm 7 mps 767 mmHg 52%
    19:00 -3°C° 0 mm 7 mps 768 mmHg 51%
    20:00 -3°C° 0 mm 7 mps 768 mmHg 51%
    21:00 -4°C° 0 mm 6 mps 768 mmHg 51%
    22:00 -4°C° 0 mm 6 mps 769 mmHg 50%
    23:00 -4°C° 0 mm 6 mps 769 mmHg 48%

    Tomorrow, 25 February, Sunday

    Time Temperature Precipitation Wind Pressure Humidity
    00:00 -5°C° 0 mm 6 mps 769 mmHg 47%
    01:00 -5°C° 0 mm 6 mps 769 mmHg 45%
    02:00 -5°C° 0 mm 6 mps 769 mmHg 44%
    03:00 -6°C° 0 mm 6 mps 770 mmHg 43%
    04:00 -6°C° 0 mm 6 mps 770 mmHg 42%
    05:00 -6°C° 0 mm 6 mps 770 mmHg 41%
    06:00 -6°C° 0 mm 6 mps 770 mmHg 40%
    07:00 -6°C° 0 mm 6 mps 770 mmHg 36%
    08:00 -6°C° 0 mm 7 mps 771 mmHg 33%
    09:00 -4°C° 0 mm 7 mps 771 mmHg 30%
    10:00 -4°C° 0 mm 7 mps 771 mmHg 27%
    11:00 -3°C° 0 mm 7 mps 771 mmHg 25%
    12:00 -2°C° 0 mm 7 mps 771 mmHg 22%
    13:00 -2°C° 0 mm 7 mps 771 mmHg 23%
    14:00 -2°C° 0 mm 7 mps 770 mmHg 25%
    15:00 -2°C° 0 mm 7 mps 770 mmHg 26%
    16:00 -3°C° 0 mm 6 mps 770 mmHg 30%
    17:00 -4°C° 0 mm 6 mps 770 mmHg 34%
    18:00 -5°C° 0 mm 5 mps 771 mmHg 38%
    19:00 -5°C° 0 mm 5 mps 771 mmHg 42%
    20:00 -5°C° 0 mm 5 mps 771 mmHg 45%
    21:00 -5°C° 0 mm 5 mps 771 mmHg 48%
    22:00 -6°C° 0 mm 5 mps 772 mmHg 52%
    23:00 -6°C° 0 mm 5 mps 772 mmHg 55%

    Day after tomorrow, 26 February, Monday

    Time Temperature Precipitation Wind Pressure Humidity
    00:00 -6°C° 0 mm 5 mps 772 mmHg 59%
    01:00 -6°C° 0 mm 5 mps 772 mmHg 60%
    02:00 -6°C° 0 mm 5 mps 772 mmHg 62%
    03:00 -6°C° 0 mm 5 mps 772 mmHg 64%
    04:00 -6°C° 0 mm 5 mps 772 mmHg 64%
    05:00 -7°C° 0 mm 5 mps 772 mmHg 64%
    06:00 -7°C° 0 mm 5 mps 772 mmHg 64%
    07:00 -6°C° 0 mm 6 mps 772 mmHg 60%
    08:00 -6°C° 0 mm 6 mps 772 mmHg 55%
    09:00 -6°C° 0 mm 7 mps 772 mmHg 50%
    10:00 -4°C° 0 mm 7 mps 772 mmHg 46%
    11:00 -4°C° 0 mm 7 mps 772 mmHg 41%
    12:00 -3°C° 0 mm 7 mps 772 mmHg 37%
    13:00 -3°C° 0 mm 7 mps 771 mmHg 38%
    14:00 -3°C° 0 mm 7 mps 771 mmHg 38%
    15:00 -3°C° 0 mm 7 mps 770 mmHg 39%
    16:00 -4°C° 0 mm 6 mps 770 mmHg 42%
    17:00 -5°C° 0 mm 5 mps 770 mmHg 45%
    18:00 -5°C° 0 mm 5 mps 770 mmHg 48%
    19:00 -5°C° 0 mm 5 mps 770 mmHg 50%
    20:00 -6°C° 0 mm 5 mps 770 mmHg 52%
    21:00 -6°C° 0 mm 5 mps 770 mmHg 54%
    22:00 -5°C° 0 mm 4 mps 770 mmHg 56%
    23:00 -5°C° 0 mm 4 mps 770 mmHg 58%

    27 February, Tuesday

    Time Temperature Precipitation Wind Pressure Humidity
    00:00 -5°C° 0 mm 4 mps 770 mmHg 60%
    01:00 -7°C° 0 mm 4 mps 769 mmHg 61%
    02:00 -7°C° 0 mm 4 mps 769 mmHg 62%
    03:00 -7°C° 0 mm 4 mps 769 mmHg 63%
    04:00 -7°C° 0 mm 4 mps 768 mmHg 63%
    05:00 -7°C° 0 mm 4 mps 768 mmHg 64%
    06:00 -7°C° 0 mm 4 mps 768 mmHg 64%
    07:00 -7°C° 0 mm 4 mps 768 mmHg 62%
    08:00 -6°C° 0 mm 5 mps 768 mmHg 59%
    09:00 -5°C° 0 mm 5 mps 767 mmHg 57%
    10:00 -5°C° 0 mm 5 mps 767 mmHg 49%
    11:00 -4°C° 0 mm 5 mps 767 mmHg 42%
    12:00 -2°C° 0 mm 5 mps 766 mmHg 35%
    13:00 -2°C° 0 mm 5 mps 766 mmHg 35%
    14:00 -2°C° 0 mm 5 mps 766 mmHg 35%
    15:00 -2°C° 0 mm 5 mps 765 mmHg 35%
    16:00 -3°C° 0 mm 4 mps 765 mmHg 39%
    17:00 -4°C° 0 mm 3 mps 765 mmHg 43%
    18:00 -5°C° 0 mm 3 mps 765 mmHg 47%
    19:00 -5°C° 0 mm 3 mps 765 mmHg 50%
    20:00 -5°C° 0 mm 3 mps 765 mmHg 52%
    21:00 -5°C° 0 mm 3 mps 765 mmHg 55%
    22:00 -6°C° 0 mm 3 mps 765 mmHg 57%
    23:00 -5°C° 0 mm 2 mps 765 mmHg 59%

    28 February, Wednesday

    Time Temperature Precipitation Wind Pressure Humidity
    00:00 -5°C° 0 mm 2 mps 765 mmHg 61%
    01:00 -5°C° 0 mm 2 mps 765 mmHg 60%
    02:00 -5°C° 0 mm 2 mps 765 mmHg 58%
    03:00 -6°C° 0 mm 2 mps 765 mmHg 56%
    04:00 -6°C° 0 mm 2 mps 765 mmHg 51%
    05:00 -7°C° 0 mm 3 mps 765 mmHg 47%
    06:00 -7°C° 0 mm 3 mps 765 mmHg 42%
    07:00 -8°C° 0 mm 4 mps 765 mmHg 38%
    08:00 -7°C° 0 mm 5 mps 766 mmHg 33%
    09:00 -8°C° 0 mm 6 mps 766 mmHg 29%
    10:00 -6°C° 0 mm 6 mps 765 mmHg 28%
    11:00 -6°C° 0 mm 6 mps 765 mmHg 27%
    12:00 -6°C° 0 mm 7 mps 764 mmHg 26%
    13:00 -6°C° 0 mm 7 mps 764 mmHg 26%
    14:00 -6°C° 0 mm 7 mps 763 mmHg 27%
    15:00 -6°C° 0 mm 7 mps 763 mmHg 27%
    16:00 -5°C° 0 mm 6 mps 763 mmHg 29%
    17:00 -6°C° 0 mm 6 mps 763 mmHg 31%
    18:00 -6°C° 0 mm 6 mps 763 mmHg 33%
    19:00 -8°C° 0 mm 6 mps 762 mmHg 34%
    20:00 -8°C° 0 mm 7 mps 762 mmHg 35%
    21:00 -8°C° 0 mm 7 mps 762 mmHg 35%
    22:00 -8°C° 0 mm 7 mps 761 mmHg 36%
    23:00 -8°C° 0 mm 8 mps 761 mmHg 38%

    1 March, Thursday

    Time Temperature Precipitation Wind Pressure Humidity
    00:00 -8°C° 0 mm 8 mps 760 mmHg 39%
    01:00 -8°C° 0 mm 8 mps 760 mmHg 39%
    02:00 -10°C° 0 mm 8 mps 759 mmHg 40%
    03:00 -10°C° 0 mm 9 mps 758 mmHg 40%
    04:00 -10°C° 0 mm 9 mps 758 mmHg 40%
    05:00 -10°C° 0 mm 9 mps 757 mmHg 40%
    06:00 -10°C° 0 mm 9 mps 757 mmHg 40%
    07:00 -9°C° 0 mm 9 mps 757 mmHg 38%
    08:00 -9°C° 0 mm 10 mps 756 mmHg 36%
    09:00 -8°C° 0 mm 10 mps 756 mmHg 34%
    10:00 -7°C° 0 mm 10 mps 755 mmHg 32%
    11:00 -5°C° 0 mm 10 mps 755 mmHg 29%
    12:00 -4°C° 0 mm 10 mps 754 mmHg 26%
    13:00 -3°C° 0 mm 10 mps 754 mmHg 27%
    14:00 -3°C° 0 mm 10 mps 753 mmHg 27%
    15:00 -1°C° 0 mm 9 mps 753 mmHg 27%
    16:00 -3°C° 0 mm 9 mps 753 mmHg 28%
    17:00 -4°C° 0 mm 9 mps 753 mmHg 30%
    18:00 -4°C° 0 mm 8 mps 753 mmHg 31%
    19:00 -5°C° 0 mm 9 mps 752 mmHg 32%
    20:00 -5°C° 0 mm 9 mps 752 mmHg 34%
    21:00 -5°C° 0 mm 9 mps 752 mmHg 35%
    22:00 -6°C° 0 mm 9 mps 752 mmHg 36%
    23:00 -6°C° 0 mm 8 mps 751 mmHg 37%
    Show more